Date String (YYYY-MM-DD hh:mm:ss) UTC,Instrument flags,absolute air pressure of the measurement (hPa),sample flow rate (lpm),inlet stack bypass flow (lpm),air temperature of the measurement (°C),ambient temperature measured by the external sensor (°C),aerosol sample conditioner tube jacket temperature (°C),OPC LED temperature (°C),internal box temperature (°C),relative humidity of the measurement (%),span deviation,mass concentration of particles derived from Lorenz-Mie calculation of OPC scattering (μg/m³),mass concentration of particles derived from Lorenz-Mie calculation of OPC scattering (μg/m³),mass concentration of particles derived from Lorenz-Mie calculation of OPC scattering (μg/m³)
DateTimeUTC,F1_M11,P_M11,Q1_M11,Q2_M11,T1_M11,T2_M11,T3_M11,T4_M11,T5_M11,U1_M11,ZSPAN_M11,X2_M11,X0_M11,X1_M11
2024-01-21 19:00:00,SystemResetWarning,0821.3,5.00,000.00,020.9,020.4,000.0,029.2,022.2,19.7,0002.6,0006.43,0014.55,0005.65
2024-01-21 19:01:00,SystemResetWarning,0821.3,5.00,000.00,020.9,020.4,000.0,029.2,022.3,19.6,0002.3,0006.81,0016.65,0006.02
2024-01-21 19:02:00,SystemResetWarning,0821.3,5.00,000.00,020.9,020.4,000.0,029.2,022.3,19.4,0001.9,0007.24,0016.48,0006.41
2024-01-21 19:03:00,SystemResetWarning,0821.3,5.01,000.00,020.9,020.4,000.0,029.2,022.3,19.6,0001.7,0007.78,0017.55,0006.90
2024-01-21 19:04:00,SystemResetWarning,0821.3,5.01,000.00,020.9,020.4,000.0,029.2,022.3,19.7,0002.6,0008.44,0018.76,0007.46
2024-01-21 19:05:00,SystemResetWarning,0821.3,5.00,000.00,020.9,020.4,000.0,029.2,022.3,19.7,0002.5,0008.93,0020.16,0007.88
2024-01-21 19:06:00,SystemResetWarning,0821.3,5.00,000.00,021.0,020.4,000.0,029.2,022.3,19.8,0002.1,0009.24,0021.05,0008.17
2024-01-21 19:07:00,SystemResetWarning,0821.3,5.00,000.00,021.0,020.4,000.0,029.2,022.3,19.7,0002.4,0009.59,0021.36,0008.46
2024-01-21 19:08:00,SystemResetWarning,0821.3,5.00,000.00,021.0,020.4,000.0,029.2,022.3,19.7,0002.5,0010.03,0022.38,0008.90
2024-01-21 19:09:00,SystemResetWarning,0821.3,5.00,000.00,021.0,020.4,000.0,029.3,022.4,19.4,0002.9,0010.54,0023.97,0009.35
2024-01-21 19:10:00,SystemResetWarning,0821.3,5.00,000.00,021.0,020.4,000.0,029.3,022.4,19.5,0002.9,0011.10,0025.53,0009.86
2024-01-21 19:11:00,SystemResetWarning,0821.3,5.00,000.00,021.0,020.4,000.0,029.3,022.4,19.6,0002.8,0011.67,0026.05,0010.38
2024-01-21 19:12:00,SystemResetWarning,0821.3,5.00,000.00,021.0,020.5,000.0,029.3,022.4,19.6,0002.6,0012.19,0026.09,0010.80
2024-01-21 19:13:00,SystemResetWarning,0821.3,5.00,000.00,021.0,020.5,000.0,029.3,022.4,19.6,0002.6,0012.61,0027.11,0011.12
2024-01-21 19:14:00,SystemResetWarning,0821.3,4.99,000.00,021.1,020.5,000.0,029.3,022.4,19.8,0002.8,0013.02,0026.84,0011.43
2024-01-21 19:15:00,SystemResetWarning,0821.2,5.00,000.00,021.1,020.5,000.0,029.3,022.5,19.9,0002.7,0013.24,0027.33,0011.64
2024-01-21 19:16:00,SystemResetWarning,0821.3,5.00,000.00,021.1,020.5,000.0,029.3,022.4,20.1,0002.6,0013.33,0027.80,0011.72
2024-01-21 19:17:00,SystemResetWarning,0821.2,5.00,000.00,021.1,020.5,000.0,029.3,022.5,20.1,0002.6,0013.32,0028.52,0011.70
2024-01-21 19:18:00,SystemResetWarning,0821.2,5.00,000.00,021.1,020.5,000.0,029.4,022.5,19.9,0002.1,0013.22,0028.48,0011.62
2024-01-21 19:19:00,SystemResetWarning,0821.2,5.00,000.00,021.1,020.5,000.0,029.4,022.5,19.8,0002.1,0012.91,0028.70,0011.36
2024-01-21 19:20:00,SystemResetWarning,0821.2,5.00,000.00,021.1,020.5,000.0,029.4,022.5,20.2,0001.9,0012.51,0029.24,0011.04
2024-01-21 19:21:00,SystemResetWarning,0821.2,5.00,000.00,021.1,020.5,000.0,029.4,022.5,20.0,0001.9,0012.22,0029.31,0010.78
2024-01-21 19:22:00,SystemResetWarning,0821.2,5.00,000.00,021.1,020.5,000.0,029.4,022.5,19.7,0001.6,0011.87,0028.94,0010.46
2024-01-21 19:23:00,SystemResetWarning,0821.1,5.00,000.00,021.2,020.6,000.0,029.4,022.5,20.1,0002.0,0011.47,0027.38,0010.16
2024-01-21 19:24:00,SystemResetWarning,0821.2,5.00,000.00,021.2,020.6,000.0,029.4,022.5,19.4,0002.0,0011.10,0026.94,0009.88
2024-01-21 19:25:00,SystemResetWarning,0821.3,5.00,000.00,021.2,020.6,000.0,029.4,022.6,19.0,0001.5,0010.67,0026.14,0009.53
2024-01-21 19:26:00,SystemResetWarning,0821.1,5.00,000.00,021.2,020.6,000.0,029.4,022.6,19.6,0001.1,0010.29,0025.79,0009.22
2024-01-21 19:27:00,SystemResetWarning,0821.1,5.00,000.00,021.2,020.6,000.0,029.5,022.6,19.2,0001.5,0010.03,0025.05,0008.98
2024-01-21 19:28:00,SystemResetWarning,0821.1,5.00,000.00,021.2,020.6,000.0,029.5,022.6,18.4,0001.7,0009.83,0024.05,0008.80
2024-01-21 19:29:00,SystemResetWarning,0821.0,5.00,000.00,021.2,020.6,000.0,029.5,022.6,18.1,0001.9,0009.62,0023.66,0008.62
2024-01-21 19:30:00,SystemResetWarning,0820.9,5.00,000.00,021.2,020.7,000.0,029.5,022.6,17.6,0002.3,0009.50,0022.49,0008.50
2024-01-21 19:31:00,SystemResetWarning,0820.9,5.00,000.00,021.2,020.7,000.0,029.5,022.7,17.3,0001.9,0009.41,0020.05,0008.44
2024-01-21 19:32:00,SystemResetWarning,0820.9,5.00,000.00,021.2,020.7,000.0,029.5,022.7,16.6,0002.0,0009.26,0018.39,0008.30
2024-01-21 19:33:00,SystemResetWarning,0821.0,5.00,000.00,021.3,020.7,000.0,029.5,022.7,17.3,0002.3,0009.16,0017.59,0008.22
2024-01-21 19:34:00,SystemResetWarning,0820.8,5.00,000.00,021.3,020.7,000.0,029.5,022.7,17.5,0002.6,0009.01,0016.95,0008.13
2024-01-21 19:35:00,SystemResetWarning,0820.8,5.00,000.00,021.3,020.7,000.0,029.5,022.7,17.7,0003.1,0008.88,0016.35,0008.05
2024-01-21 19:36:00,SystemResetWarning,0820.9,5.00,000.00,021.3,020.7,000.0,029.6,022.7,17.6,0003.5,0008.80,0016.29,0008.00
2024-01-21 19:37:00,SystemResetWarning,0820.8,4.99,000.00,021.3,020.8,000.0,029.6,022.7,17.5,0003.4,0008.72,0015.36,0007.95
2024-01-21 19:38:00,SystemResetWarning,0820.9,5.00,000.00,021.3,020.8,000.0,029.6,022.7,17.5,0003.5,0008.55,0014.27,0007.86
2024-01-21 19:39:00,SystemResetWarning,0820.8,5.00,000.00,021.3,020.8,000.0,029.6,022.7,17.1,0003.5,0008.38,0013.57,0007.74
2024-01-21 19:40:00,SystemResetWarning,0820.8,5.00,000.00,021.4,020.8,000.0,029.6,022.8,16.9,0003.8,0008.23,0013.28,0007.64
2024-01-21 19:41:00,SystemResetWarning,0820.9,5.00,000.00,021.4,020.8,000.0,029.6,022.8,16.9,0003.5,0008.14,0013.42,0007.56
2024-01-21 19:42:00,SystemResetWarning,0820.8,5.00,000.00,021.4,020.8,000.0,029.6,022.8,16.4,0003.6,0008.07,0013.38,0007.50
2024-01-21 19:43:00,SystemResetWarning,0820.8,5.00,000.00,021.4,020.8,000.0,029.6,022.8,16.1,0003.9,0007.98,0013.91,0007.42
2024-01-21 19:44:00,SystemResetWarning,0820.8,5.00,000.00,021.4,020.8,000.0,029.7,022.8,16.1,0003.6,0007.77,0014.07,0007.27
2024-01-21 19:45:00,SystemResetWarning,0820.8,5.00,000.00,021.4,020.9,000.0,029.7,022.8,16.0,0003.0,0007.64,0013.93,0007.12
2024-01-21 19:46:00,SystemResetWarning,0820.8,5.01,000.00,021.4,020.9,000.0,029.7,022.8,16.0,0002.4,0007.43,0013.62,0006.89
2024-01-21 19:47:00,SystemResetWarning,0820.8,5.01,000.00,021.4,020.9,000.0,029.7,022.8,15.8,0002.3,0007.20,0013.41,0006.68
2024-01-21 19:48:00,SystemResetWarning,0820.8,5.00,000.00,021.4,020.9,000.0,029.7,022.9,16.2,0002.5,0006.93,0013.30,0006.44
2024-01-21 19:49:00,SystemResetWarning,0820.8,5.01,000.00,021.5,020.9,000.0,029.7,022.9,16.3,0002.4,0006.66,0013.29,0006.19
2024-01-21 19:50:00,SystemResetWarning,0820.8,4.99,000.00,021.5,020.9,000.0,029.7,022.9,16.3,0002.6,0006.40,0013.00,0005.93
2024-01-21 19:51:00,SystemResetWarning,0820.7,4.99,000.00,021.5,020.9,000.0,029.7,022.9,16.2,0002.8,0006.16,0012.65,0005.69
2024-01-21 19:52:00,SystemResetWarning,0820.7,5.00,000.00,021.5,021.0,000.0,029.8,022.9,16.1,0002.8,0005.89,0012.14,0005.44
2024-01-21 19:53:00,SystemResetWarning,0820.6,5.00,000.00,021.5,021.0,000.0,029.8,022.9,16.1,0002.8,0005.54,0011.51,0005.14
2024-01-21 19:54:00,SystemResetWarning,0820.6,5.01,000.00,021.5,021.0,000.0,029.8,022.9,16.2,0002.6,0005.23,0010.42,0004.87
2024-01-21 19:55:00,SystemResetWarning,0820.6,5.01,000.00,021.5,021.0,000.0,029.8,022.9,15.6,0002.8,0004.99,0009.87,0004.64
2024-01-21 19:56:00,SystemResetWarning,0820.6,5.00,000.00,021.5,021.0,000.0,029.8,023.0,15.8,0000.0,0004.74,0009.53,0004.43
2024-01-21 19:57:00,SystemResetWarning,0820.6,5.00,000.00,021.6,021.0,000.0,029.8,023.0,16.0,0000.0,0004.57,0009.59,0004.29
2024-01-21 19:58:00,SystemResetWarning,0820.6,5.00,000.00,021.6,021.0,000.0,029.8,023.0,16.1,0003.7,0004.38,0009.05,0004.13
2024-01-21 19:59:00,SystemResetWarning,0820.6,5.00,000.00,021.6,021.0,000.0,029.8,023.0,15.2,0001.1,0004.23,0008.52,0003.98
